Погода в Кампинасе

Бразилия     22°54′32″S   47°03′52″W
темп.,
°C
ветер,
м/с
пор.,
м/с
влажн.,
%
обл.,
%
осадки,
мм/ч
давл.,
гПа
погр.,
м
27 февраля, сб
сб2700:00+19вюв489343 0.0 1014289
03:00+18вюв239140 0.0 101391
06:00+17вюв23910 0.0 101480
09:00+22всв24758 0.0 1015458
12:00+25всв236653 1.9 10141011
15:00+25всв447348 7.1 1012765
18:00+22в488468 7.6 1012357
21:00+20в369084 10.4 1014196
28 февраля, вс
вс2800:00+19юв3591100 1.9 1014175
03:00+19в2390100 1.9 1013113
06:00+19вюв248998 0.0 1014113
09:00+22всв367899 0.0 1015507
12:00+27ссв466026 0.3 10141482
15:00+26св356314 2.7 1012958
18:00+24в237453 0.9 1011184
21:00+20вюв348347 1.6 1013108
1 марта, пн
пн100:00+19в368770 0.0 1014141
03:00+18в348752 0.0 101294
06:00+18всв238843 0.0 101381
09:00+24ссв487340 0.0 1014779
12:00+27ссв45607 1.2 10131353
15:00+28ссв34575 1.6 10111508
18:00+24св237473 0.8 1011132
21:00+21в227682 0.8 101346
2 марта, вт
вт200:00+20в238518 0.0 101466
03:00+19в228540 0.0 101340
06:00+19в228697 0.0 101443
09:00+24ссв367298 0.0 1015621
12:00+28с456084 0.0 10141366
15:00+28ссв346072 1.4 10121379
18:00+25ссз117398 3.6 1012197
21:00+22всв127989 5.6 101471
3 марта, ср
ср300:00+21вюв2384100 0.2 101581
03:00+21с1184100 0.3 101566
06:00+20ссв1288100 2.9 101671
09:00+23с367999 5.4 1017430
12:00+27ссз566189 0.1 10161507
15:00+28сз236075 0.7 10141638
18:00+24зюз247898 1.2 1013243
21:00+22ю128298 2.0 101562